Find Yaogan 31 hao 04 zu 01 xing

NORAD ID: 47854 Int'l Des: 2021-020 Owner: ZLZB Country: CN Constellation: yaogan operational
LEO

現在のビュー

3D地球を読み込み中...

About Yaogan 31 hao 04 zu 01 xing

Yaogan 31 hao 04 zu 01 xing (NORAD 47854) is a yaogan constellation satellite launched Mar 13, 2021 by ZLZB of CN. It operates in LEO orbit with a mass of 500.00 kg.

Yaogan 31 hao 04 zu 01 xingについて

説明を読み込み中...

次回通過

Passes for default location (London). Set your location on the main map for personalized predictions.

高度履歴

Loading altitude history...

軌道要素

1 47854U 21020A 26195.58527189 -.00000213 00000-0 -18854-3 0 9998
2 47854 63.4026 187.5853 0177438 0.4948 359.6222 13.45449107262156
Epoch: Jul 14, 2026 • Age: 8 hours

現在のステータス

高度 1210.1 km
遠地点 / 近地点 N/A
速度 7.19 km/s
衛星直下点 -29.17°S, 116.45°E
打ち上げ日 Mar 13, 2021
運用期間 5.3 years
タイプ military

技術仕様

分類 Payload
質量 500.00 kg
乾燥質量 500.00 kg
総質量 500.00 kg
長さ 0.50 m
直径 0.50 m
スパン 1.00 m
形状 Box + 2 Pan
製造者 DFHZ
バスタイプ JB-8B
フェーズステータス In Orbit
所有者/国 ZLZB/CN

Most Searched